{"data":{"norad_id":81134,"intl_designator":"","name":"UNKNOWN","alt_names":[],"object_type":"UNKNOWN","status":"UNKNOWN","operator":null,"country":null,"launch_date":null,"launch_site_code":null,"launch_vehicle":null,"mission":null,"orbit_class":"UNKNOWN","rcs_meters":null,"size_class":null,"mass_kg":null,"dimensions":null,"purposes":[],"wikipedia_slug":null,"has_3d_model":false,"image_url":null,"decayed_at":null,"tle_current":{"epoch":"2026-07-08T22:38:30.211872Z","epoch_age_seconds":6369839,"freshness":"OLD","line1":"1 81134U          26189.94340523  .00000221  00000+0  78174-3 0  9997","line2":"2 81134  90.2502   8.7774 0024556 200.3230 159.6913 12.93055221489513","mean_motion":12.93055221,"eccentricity":0.0024556,"inclination_deg":90.2502,"raan_deg":8.7774,"arg_perigee_deg":200.323,"mean_anomaly_deg":159.6913,"bstar":0.00078174,"rev_number":48951,"period_min":111.36415341074,"perigee_km":1270.5935434569,"apogee_km":1308.2504592243,"semimajor_km":7667.5590013406,"source":"CELESTRAK","updated_at":"2026-08-07T09:00:37.094349Z"}}}